Location: Unspecified
(0.0000°N, 0.0000°E)
Time: 20:43:03
(UTC+00:00)

USA 125 - Visible Passes

Search period start: 17 October 2019 00:00
Search period end: 27 October 2019 00:00
Orbit: 363 x 39930 km, 64.0° (Epoch: 09 October)

Date Brightness Start Highest point End Pass type
(mag) Time Alt. Az. Time Alt. Az. Time Alt. Az.
17 Oct ? 21:04:34 10° S 23:31:23 67° N 08:23:33 10° ENE visible
18 Oct ? 20:57:41 10° S 23:25:46 66° N 08:16:19 10° ENE visible
19 Oct ? 20:50:50 10° S 23:19:34 66° N 08:09:04 10° ENE visible
20 Oct ? 20:43:57 10° S 23:12:32 66° N 05:31:41 10° NNW visible
21 Oct ? 20:37:05 10° S 23:04:24 66° NNE 07:54:30 10° NE visible
22 Oct ? 20:30:14 10° S 22:54:33 66° NNE 05:24:31 10° NNW visible
23 Oct ? 20:23:22 10° S 21:59:23 69° NE 07:39:52 10° NE visible
24 Oct ? 20:16:31 10° S 21:55:04 68° NE 07:32:31 10° NE visible
25 Oct ? 20:09:40 10° S 21:50:50 68° NE 05:14:01 10° NNW visible
